Kezdőlap
METAR-TAF:

METAR-TAF

Repülőterek :

Chariton Municipal Airport

Chariton, Iowa, Amerikai Egyesült Államok

földrajzi szélesség: 41-02N, földrajzi hosszúság: 093-22W, magasság: 320 m

Jelenlegi meteorológiai megfigyelések

A jelentés 18 perccel ezelõtt készült, 09:55 UTC
Kelet-északkeleti szél 6 kt
Hőmérséklet 5°C
Páratartalom 93%
Légköri nyomás 1016 hPa
Látótávolság: 16.1 km
Borult 6000 lábon

METAR: KCNC 230955Z AUTO 06006KT 10SM OVC060 05/04 A3000 RMK AO2

Idő: 05:13 (10:13 UTC)


TAF: hiányzik

Meteorológiai megfigyelések és előrejelzések több, mint 4000 repülőtéren (METAR és TAF jelentéseket).

A térképen piros és sárga pontok jelzik az elérhető meteorológiai állomásokat.

Mozgassa az egeret a pont fölött, hogy megjelenjen az állomás neve.

Azután kattintson az időjárási megfigyelések és előrejelzések megtekintéséhez.

A térkép megváltoztatása: kattintson a fekete keresztel jelölt zöld gombra ráközelítéshez, a vonallal jelölt zöld gombra távolításhoz, vagy a zöld nyilakra a szomszédos térképek eléréséhez.


METAR-TAF: